FW5816 Weather Reports


time (UTC)temp
C
wind
direction
speed
KPH
gust
KPH
rain 1hr
cm
rain 24hr
cm
rain mn
cm
humidity
%
barometer
mb
20260905224540 33 67 0.0 6.4 0.00 1.32 1.32 59 1011.4
20260905224015 33 49 0.0 8.0 0.00 1.32 1.32 60 1011.3
20260905223519 33 8 3.2 8.0 0.00 1.32 1.32 59 1011.1
20260905223040 33 40 3.2 11.3 0.00 1.32 1.32 58 1011.1
20260905222520 33 358 4.8 11.3 0.00 1.32 1.32 57 1011.0
20260905222019 34 41 3.2 11.3 0.00 1.32 1.32 56 1011.2
20260905221538 35 302 3.2 11.3 0.00 1.32 1.32 55 1011.3
20260905221021 35 13 1.6 4.8 0.00 1.32 1.32 54 1011.1
20260905220522 35 46 1.6 4.8 0.00 1.32 1.32 53 1011.3
20260905220035 35 0 0.0 4.8 0.00 1.32 1.32 54 1011.1
20260905215519 35 357 1.6 8.0 0.00 1.32 1.32 54 1011.2
20260905215016 35 283 1.6 8.0 0.00 1.32 1.32 55 1011.2
20260905214538 35 254 1.6 6.4 0.00 1.32 1.32 54 1011.3
20260905214020 35 276 1.6 6.4 0.00 1.32 1.32 53 1011.4
20260905213518 36 30 0.0 6.4 0.00 1.32 1.32 52 1011.4
20260905213043 35 44 0.0 6.4 0.00 1.32 1.32 53 1011.5
20260905212519 35 14 1.6 6.4 0.00 1.32 1.32 53 1011.4
20260905212023 35 27 1.6 6.4 0.00 1.32 1.32 53 1011.4
20260905211538 35 250 1.6 6.4 0.00 1.32 1.32 54 1011.4
20260905211019 35 279 0.0 6.4 0.00 1.32 1.32 53 1011.4
20260905210519 35 316 3.2 6.4 0.00 1.32 1.32 54 1011.6
20260905210044 35 124 0.0 8.0 0.00 1.32 1.32 53 1011.5
20260905205517 35 124 1.6 11.3 0.00 1.32 1.32 54 1011.6
20260905205020 34 0 1.6 11.3 0.00 1.32 1.32 56 1011.6
20260905204537 34 269 4.8 12.9 0.00 1.32 1.32 56 1011.7
20260905204019 34 334 3.2 12.9 0.00 1.32 1.32 54 1011.9
20260905203519 34 257 3.2 9.7 0.00 1.32 1.32 55 1011.8
20260905203038 35 160 1.6 9.7 0.00 1.32 1.32 54 1011.9
20260905202521 35 286 1.6 9.7 0.00 1.32 1.32 54 1011.9
20260905202020 34 292 1.6 9.7 0.00 1.32 1.32 54 1012.0
20260905201540 34 288 4.8 9.7 0.00 1.32 1.32 55 1012.1
20260905201017 34 304 3.2 11.3 0.00 1.32 1.32 55 1012.2
20260905200517 34 319 4.8 11.3 0.00 1.32 1.32 55 1012.2
20260905200044 34 327 0.0 8.0 0.00 1.32 1.32 55 1012.2
20260905195517 34 276 1.6 11.3 0.00 1.32 1.32 55 1012.4
20260905195020 33 3 4.8 12.9 0.00 1.32 1.32 55 1012.1
20260905194539 33 0 0.0 12.9 0.00 1.32 1.32 55 1012.3
20260905194018 34 64 6.4 12.9 0.00 1.32 1.32 53 1012.4
20260905193516 33 238 1.6 9.7 0.00 1.32 1.32 55 1012.6
20260905193035 33 345 4.8 9.7 0.00 1.32 1.32 54 1012.6
20260905192520 34 11 4.8 9.7 0.00 1.32 1.32 55 1012.7
20260905192024 33 347 3.2 9.7 0.00 1.32 1.32 54 1012.7
20260905191539 34 315 1.6 6.4 0.00 1.32 1.32 54 1012.8
20260905191020 33 0 0.0 6.4 0.00 1.32 1.32 54 1012.9
20260905190520 34 314 0.0 9.7 0.00 1.32 1.32 55 1012.9
20260905190034 33 0 4.8 9.7 0.00 1.32 1.32 54 1013.0
20260905185518 34 302 0.0 11.3 0.00 1.32 1.32 54 1013.0
20260905185019 33 264 3.2 11.3 0.00 1.32 1.32 54 1013.1
20260905184558 33 286 3.2 8.0 0.00 1.32 1.32 54 1013.2
20260905184025 33 172 3.2 8.0 0.00 1.32 1.32 52 1013.2
20260905183524 34 277 1.6 8.0 0.00 1.32 1.32 53 1013.3
20260905183041 33 108 3.2 8.0 0.00 1.32 1.32 54 1013.3
20260905182520 34 228 3.2 8.0 0.00 1.32 1.32 52 1013.4
20260905182020 34 15 1.6 6.4 0.00 1.32 1.32 54 1013.5
20260905181538 33 128 1.6 6.4 0.00 1.32 1.32 55 1013.6
20260905181017 33 205 1.6 6.4 0.00 1.32 1.32 54 1013.7
20260905180518 33 74 1.6 8.0 0.00 1.32 1.32 54 1013.6
20260905180038 33 254 0.0 8.0 0.00 1.32 1.32 57 1013.7
20260905175518 33 285 3.2 8.0 0.00 1.32 1.32 56 1013.9
20260905175016 33 56 3.2 8.0 0.00 1.32 1.32 55 1013.8
20260905174545 33 137 1.6 8.0 0.00 1.32 1.32 54 1013.8
20260905174020 33 134 3.2 8.0 0.00 1.32 1.32 55 1014.0
20260905173518 33 122 1.6 9.7 0.00 1.32 1.32 54 1013.9
20260905173036 33 127 3.2 9.7 0.00 1.32 1.32 56 1014.0
20260905172521 33 140 4.8 9.7 0.00 1.32 1.32 55 1014.1
20260905172020 32 51 1.6 8.0 0.00 1.32 1.32 56 1014.1
20260905171539 32 67 1.6 9.7 0.00 1.32 1.32 57 1014.1
20260905171022 32 126 3.2 12.9 0.00 1.32 1.32 56 1014.1
20260905170519 32 136 4.8 12.9 0.00 1.32 1.32 56 1014.2
20260905170039 32 226 3.2 11.3 0.00 1.32 1.32 56 1014.2
20260905165518 32 119 3.2 11.3 0.00 1.32 1.32 58 1014.3
20260905165018 32 103 3.2 11.3 0.00 1.32 1.32 57 1014.5
20260905164537 31 139 1.6 9.7 0.00 1.32 1.32 58 1014.5
20260905164018 32 139 3.2 9.7 0.00 1.32 1.32 58 1014.7
20260905163518 31 133 1.6 9.7 0.00 1.32 1.32 57 1014.8
20260905163047 31 140 1.6 8.0 0.00 1.32 1.32 59 1014.9
20260905162520 31 0 0.0 8.0 0.00 1.32 1.32 62 1014.9
20260905162019 31 152 3.2 8.0 0.00 1.32 1.32 61 1014.9
20260905161536 31 153 3.2 8.0 0.00 1.32 1.32 60 1014.7
20260905161020 30 46 3.2 11.3 0.00 1.32 1.32 63 1014.6
20260905160520 30 134 3.2 11.3 0.00 1.32 1.32 65 1014.6
20260905160048 30 182 3.2 8.0 0.00 1.32 1.32 65 1014.8
20260905155517 30 128 1.6 9.7 0.00 1.32 1.32 63 1014.8
20260905155016 30 95 3.2 12.9 0.00 1.32 1.32 65 1014.9
20260905154547 29 58 4.8 12.9 0.00 1.32 1.32 66 1014.9
20260905154018 29 174 4.8 9.7 0.00 1.32 1.32 67 1014.9
20260905153518 29 128 4.8 11.3 0.00 1.32 1.32 67 1014.9
20260905153038 29 131 3.2 11.3 0.00 1.32 1.32 67 1014.9
20260905152518 29 148 1.6 9.7 0.00 1.32 1.32 68 1014.8
20260905152020 28 136 1.6 11.3 0.00 1.32 1.32 71 1014.8
20260905151538 28 57 3.2 11.3 0.00 1.32 1.32 71 1014.9
20260905151022 28 63 4.8 11.3 0.00 1.32 1.32 70 1014.8
20260905150519 28 135 3.2 11.3 0.00 1.32 1.32 72 1014.9
20260905150037 27 141 6.4 11.3 0.00 1.32 1.32 71 1014.9
20260905145519 27 108 3.2 12.9 0.00 1.32 1.32 74 1014.9
20260905145021 27 67 4.8 14.5 0.00 1.32 1.32 72 1015.1
20260905144547 27 41 4.8 14.5 0.00 1.32 1.32 74 1015.1
20260905144019 27 27 6.4 14.5 0.00 1.32 1.32 73 1015.2
20260905143519 27 82 3.2 9.7 0.00 1.32 1.32 74 1015.2
20260905143038 26 163 1.6 11.3 0.00 1.32 1.32 77 1015.4
20260905142519 26 120 3.2 14.5 0.00 1.32 1.32 76 1015.4
20260905142022 26 83 6.4 16.1 0.00 1.32 1.32 77 1015.4
20260905141600 26 145 6.4 17.7 0.00 1.32 1.32 77 1015.4
20260905141018 26 120 8.0 17.7 0.00 1.32 1.32 76 1015.5
20260905140517 26 103 6.4 16.1 0.00 1.32 1.32 79 1015.6
20260905140043 25 82 4.8 16.1 0.00 1.32 1.32 79 1015.7
20260905135519 25 53 8.0 16.1 0.00 1.32 1.32 80 1015.6
20260905135019 25 97 8.0 17.7 0.00 1.32 1.32 80 1015.6
20260905134533 25 66 6.4 20.9 0.00 1.32 1.32 80 1015.6
20260905134017 24 107 8.0 25.7 0.00 1.32 1.32 83 1015.6
20260905133519 24 74 6.4 25.7 0.00 1.32 1.32 83 1015.6
20260905133051 23 94 8.0 17.7 0.00 1.32 1.32 84 1015.9
20260905132520 23 117 6.4 17.7 0.00 1.32 1.32 85 1016.0
20260905132020 23 83 6.4 17.7 0.00 1.32 1.32 86 1016.2
20260905131552 23 77 6.4 17.7 0.00 1.32 1.32 88 1016.1
20260905131021 23 60 4.8 17.7 0.00 1.32 1.32 90 1016.2
20260905130519 23 49 3.2 14.5 0.00 1.32 1.32 90 1016.5
20260905130037 23 41 4.8 14.5 0.00 1.32 1.32 91 1016.3
20260905125517 23 56 4.8 19.3 0.00 1.32 1.32 92 1016.1
20260905125020 22 44 6.4 19.3 0.00 1.32 1.32 92 1016.1
20260905124536 22 86 6.4 20.9 0.03 1.32 1.32 92 1016.0
20260905124019 22 54 9.7 24.1 0.25 1.32 1.32 92 1015.8
20260905123516 22 46 12.9 24.1 0.84 1.32 1.32 91 1015.8
20260905123037 22 77 9.7 17.7 1.19 1.32 1.32 92 1015.8
20260905122520 22 343 6.4 14.5 1.19 1.32 1.32 93 1015.8
20260905122019 22 27 6.4 14.5 1.19 1.32 1.32 94 1015.7
20260905121535 22 68 4.8 14.5 1.19 1.32 1.32 95 1015.6
20260905121023 22 46 1.6 9.7 1.19 1.32 1.32 96 1015.3
20260905120524 23 0 0.0 16.1 1.19 1.32 1.32 95 1014.4
20260905120038 23 39 1.6 16.1 1.19 1.32 1.32 94 1014.2
20260905115518 23 281 6.4 12.9 1.19 1.32 1.32 94 1014.1
20260905115020 23 0 1.6 12.9 1.19 1.32 1.32 92 1013.9
20260905114605 23 67 6.4 19.3 1.17 1.32 1.32 94 1014.1
20260905114019 22 46 11.3 19.3 0.84 0.99 0.99 93 1014.8
20260905113519 23 34 6.4 12.9 0.28 0.43 0.43 93 1015.0
20260905113037 23 276 1.6 9.7 0.00 0.15 0.15 92 1015.0
20260905112516 23 39 1.6 14.5 0.00 0.15 0.15 92 1014.3
20260905112020 23 131 1.6 14.5 0.00 0.15 0.15 91 1014.1
20260905111538 23 70 4.8 14.5 0.00 0.15 0.15 91 1014.3
20260905111018 23 70 3.2 12.9 0.00 0.15 0.15 91 1014.4
20260905110517 23 131 3.2 12.9 0.00 0.15 0.15 91 1014.4
20260905110034 23 75 4.8 14.5 0.00 0.15 0.15 91 1014.2
20260905105520 24 46 3.2 14.5 0.00 0.15 0.15 91 1014.4
20260905105019 24 155 6.4 12.9 0.00 0.15 0.15 91 1014.1
20260905104534 24 80 1.6 4.8 0.00 0.15 0.15 92 1014.0
20260905104018 24 65 1.6 8.0 0.00 0.15 0.15 93 1014.0
20260905103519 24 51 1.6 8.0 0.00 0.15 0.15 93 1014.0
20260905103038 23 27 4.8 8.0 0.00 0.15 0.15 93 1014.1
20260905102519 23 0 0.0 4.8 0.00 0.15 0.15 94 1013.6
20260905102019 23 27 0.0 9.7 0.00 0.15 0.15 93 1013.7
20260905101535 23 360 1.6 9.7 0.00 0.15 0.15 93 1013.4
20260905101018 23 43 3.2 9.7 0.03 0.15 0.15 93 1013.6
20260905100519 23 0 0.0 0.0 0.10 0.15 0.15 92 1013.4
20260905100051 23 0 0.0 3.2 0.10 0.15 0.15 91 1013.4
20260905095520 24 0 0.0 3.2 0.10 0.15 0.15 91 1013.4
20260905095020 24 0 0.0 4.8 0.10 0.15 0.15 90 1013.4
20260905094535 24 139 1.6 4.8 0.10 0.15 0.15 90 1013.5
20260905094019 24 140 1.6 4.8 0.15 0.15 0.15 90 1013.5
20260905093519 24 115 0.0 3.2 0.15 0.15 0.15 92 1013.5
20260905093036 24 0 0.0 4.8 0.15 0.15 0.15 92 1013.4
20260905092523 24 0 0.0 8.0 0.15 0.15 0.15 92 1013.5
20260905092022 25 0 1.6 9.7 0.15 0.15 0.15 92 1013.3
20260905091547 25 141 1.6 9.7 0.15 0.15 0.15 91 1013.4
20260905091020 25 199 4.8 9.7 0.13 0.13 0.13 92 1013.5
20260905090518 25 236 3.2 9.7 0.05 0.05 0.05 92 1013.6
20260905090035 25 323 0.0 1.6 0.05 0.05 0.05 90 1013.2
20260905085519 25 0 0.0 9.7 0.05 0.05 0.05 90 1013.2
20260905085021 25 323 0.0 9.7 0.05 0.05 0.05 89 1013.2
20260905084538 26 348 4.8 9.7 0.03 0.03 0.03 88 1013.2
20260905084020 26 0 1.6 8.0 0.00 0.00 0.00 89 1013.3
20260905083520 25 257 3.2 8.0 0.00 0.00 0.00 89 1013.3
20260905083034 25 0 0.0 1.6 0.00 0.00 0.00 89 1012.8
20260905082519 25 0 0.0 1.6 0.00 0.00 0.00 89 1012.9
20260905082019 25 0 0.0 3.2 0.00 0.00 0.00 90 1013.1
20260905081535 25 272 0.0 3.2 0.00 0.00 0.00 90 1013.2
20260905081019 25 27 0.0 8.0 0.00 0.00 0.00 90 1013.0
20260905080516 25 0 3.2 8.0 0.00 0.00 0.00 91 1013.0
20260905080039 25 0 0.0 0.0 0.00 0.00 0.00 91 1013.0
20260905075516 25 0 0.0 0.0 0.00 0.00 0.00 91 1012.7
20260905075018 25 0 0.0 0.0 0.00 0.00 0.00 91 1012.7
20260905074552 25 0 0.0 0.0 0.00 0.00 0.00 91 1013.0
20260905074022 25 0 0.0 0.0 0.00 0.00 0.00 90 1013.1
20260905073520 25 0 0.0 0.0 0.00 0.00 0.00 90 1013.1
20260905073056 25 0 0.0 0.0 0.00 0.00 0.00 91 1013.1
20260905072520 25 0 0.0 0.0 0.00 0.00 0.00 91 1013.3
20260905072019 25 0 0.0 0.0 0.00 0.00 0.00 91 1013.3
20260905071536 25 0 0.0 0.0 0.00 0.00 0.00 91 1013.4
20260905071017 25 0 0.0 0.0 0.00 0.00 0.00 90 1013.3
20260905070518 25 0 0.0 0.0 0.00 0.00 0.00 90 1013.3
20260905070040 25 0 0.0 0.0 0.00 0.00 0.00 90 1013.3
20260905065516 25 0 0.0 0.0 0.00 0.00 0.00 90 1013.5
20260905065024 25 0 0.0 0.0 0.00 0.00 0.00 89 1013.4
20260905064536 26 0 0.0 0.0 0.00 0.00 0.00 89 1013.4
20260905064020 26 0 0.0 0.0 0.00 0.00 0.00 88 1013.5
20260905063517 26 0 0.0 0.0 0.00 0.00 0.00 88 1013.5
20260905063040 26 0 0.0 0.0 0.00 0.00 0.00 88 1013.7
20260905062519 26 0 0.0 0.0 0.00 0.00 0.00 87 1013.7
20260905062021 26 0 0.0 0.0 0.00 0.00 0.00 87 1013.7
20260905061537 26 0 0.0 0.0 0.00 0.00 0.00 87 1013.8
20260905061019 26 0 0.0 0.0 0.00 0.00 0.00 87 1013.8
20260905060519 26 0 0.0 0.0 0.00 0.00 0.00 87 1013.8
20260905060035 26 0 0.0 0.0 0.00 0.00 0.00 87 1013.9
20260905055517 26 0 0.0 0.0 0.00 0.00 0.00 86 1014.0
20260905055021 26 0 0.0 0.0 0.00 0.00 0.00 86 1014.0
20260905054541 26 0 0.0 0.0 0.00 0.00 0.00 86 1013.9
20260905054020 26 0 0.0 0.0 0.00 0.00 0.00 86 1013.9
20260905053518 26 0 0.0 0.0 0.00 0.00 0.00 86 1014.0
20260905053037 26 0 0.0 0.0 0.00 0.00 0.00 85 1014.0
20260905052517 26 0 0.0 0.0 0.00 0.00 0.00 85 1014.0
20260905052020 26 0 0.0 0.0 0.00 0.00 0.00 85 1013.9
20260905051535 26 0 0.0 0.0 0.00 0.00 0.00 85 1014.0
20260905051018 26 0 0.0 0.0 0.00 0.00 0.00 85 1014.0
20260905050521 26 0 0.0 0.0 0.00 0.00 0.00 85 1014.0
20260905050040 26 0 0.0 0.0 0.00 0.00 0.00 86 1014.0
20260905045523 26 0 0.0 0.0 0.00 0.00 0.00 86 1014.0
20260905045018 26 0 0.0 0.0 0.00 0.00 0.00 86 1014.0
20260905044551 26 0 0.0 0.0 0.00 0.00 0.00 86 1014.2
20260905044021 27 0 0.0 0.0 0.00 0.00 0.00 86 1014.2
20260905043520 27 0 0.0 0.0 0.00 0.00 0.00 85 1014.2
20260905043037 27 0 0.0 0.0 0.00 0.00 0.00 84 1014.2
20260905042517 27 0 0.0 0.0 0.00 0.00 0.00 84 1014.2
20260905042020 27 0 0.0 0.0 0.00 0.00 0.00 84 1014.4
20260905041535 27 0 0.0 1.6 0.00 0.00 0.00 84 1014.3
20260905041019 27 0 0.0 3.2 0.00 0.00 0.00 84 1014.3
20260905040517 27 72 0.0 3.2 0.00 0.00 0.00 83 1014.3
20260905040046 27 281 0.0 0.0 0.00 0.00 0.00 82 1014.2
20260905035520 27 0 0.0 0.0 0.00 0.00 0.00 82 1014.2
20260905035016 27 0 0.0 0.0 0.00 0.00 0.00 81 1014.2
20260905034556 27 0 0.0 0.0 0.00 0.00 0.00 81 1014.2
20260905034020 27 0 0.0 1.6 0.00 0.00 0.00 81 1014.3
20260905033517 27 0 0.0 1.6 0.00 0.00 0.00 81 1014.3
20260905033056 27 276 0.0 1.6 0.00 0.00 0.00 81 1014.2
20260905032520 28 0 0.0 1.6 0.00 0.00 0.00 80 1014.3
20260905032020 28 0 0.0 1.6 0.00 0.00 0.00 80 1014.2
20260905031538 28 0 0.0 0.0 0.00 0.00 0.00 81 1014.3
20260905031020 28 0 0.0 0.0 0.00 0.00 0.00 81 1014.3
20260905030521 28 0 0.0 1.6 0.00 0.00 0.00 80 1014.4
20260905030037 28 0 0.0 1.6 0.00 0.00 0.00 81 1014.4
20260905025522 28 0 0.0 0.0 0.00 0.00 0.00 81 1014.4
20260905025022 28 0 0.0 0.0 0.00 0.00 0.00 81 1014.3
20260905024538 28 0 0.0 0.0 0.00 0.00 0.00 81 1014.3
20260905024024 28 0 0.0 0.0 0.00 0.00 0.00 80 1014.4
20260905023517 28 0 0.0 1.6 0.00 0.00 0.00 80 1014.3
20260905023106 28 0 0.0 1.6 0.00 0.00 0.00 79 1014.2
20260905022515 29 0 0.0 1.6 0.00 0.00 0.00 79 1014.2
20260905022020 29 278 0.0 0.0 0.00 0.00 0.00 80 1014.2
20260905021538 28 0 0.0 1.6 0.00 0.00 0.00 79 1014.1
20260905021017 29 0 0.0 1.6 0.00 0.00 0.00 79 1014.1
20260905020523 29 278 0.0 1.6 0.00 0.00 0.00 78 1014.2
20260905020037 29 0 0.0 1.6 0.00 0.00 0.00 77 1014.1
20260905015519 29 0 0.0 0.0 0.00 0.00 0.00 77 1014.2
20260905015022 29 0 0.0 0.0 0.00 0.00 0.00 76 1014.3
20260905014537 29 0 0.0 0.0 0.00 0.00 0.00 77 1014.1
20260905014020 30 0 0.0 0.0 0.00 0.00 0.00 76 1014.0
20260905013520 30 0 0.0 1.6 0.00 0.00 0.00 76 1014.0
20260905013035 30 0 0.0 1.6 0.00 0.00 0.00 75 1013.9
20260905012520 30 0 0.0 1.6 0.00 0.00 0.00 75 1013.8
20260905012020 30 0 0.0 0.0 0.00 0.00 0.00 74 1013.8
20260905011548 30 0 0.0 0.0 0.00 0.00 0.00 76 1013.7
20260905011020 30 0 0.0 0.0 0.00 0.00 0.00 75 1013.7
20260905010521 30 147 0.0 1.6 0.00 0.00 0.00 72 1013.6
20260905010041 30 0 0.0 1.6 0.00 0.00 0.00 71 1013.5
20260905005519 30 147 0.0 1.6 0.00 0.00 0.00 72 1013.4
20260905005019 31 0 0.0 0.0 0.00 0.00 0.00 73 1013.4
20260905004539 31 34 0.0 0.0 0.00 0.00 0.00 74 1013.4
20260905004018 31 0 0.0 1.6 0.00 0.00 0.00 73 1013.4
20260905003522 31 0 0.0 1.6 0.00 0.00 0.00 72 1013.3
20260905003039 32 0 0.0 1.6 0.00 0.00 0.00 71 1013.3
20260905002518 32 0 0.0 0.0 0.00 0.00 0.00 67 1013.3
20260905002018 33 0 0.0 0.0 0.00 0.00 0.00 66 1013.2
20260905001537 33 0 0.0 0.0 0.00 0.00 0.00 65 1013.3
20260905001020 33 0 0.0 0.0 0.00 0.00 0.00 64 1013.2
20260905000521 34 0 0.0 0.0 0.00 0.00 0.00 64 1013.2
20260905000042 35 0 0.0 1.6 0.00 0.00 0.00 62 1013.1
20260904235517 35 0 0.0 1.6 0.00 0.00 0.00 60 1013.2
20260904235018 35 0 0.0 1.6 0.00 0.00 0.00 59 1013.1
20260904234537 36 0 0.0 1.6 0.00 0.00 0.00 58 1013.2
20260904234019 36 0 0.0 0.0 0.00 0.00 0.00 55 1013.2
20260904233518 36 0 0.0 1.6 0.00 0.00 0.00 55 1013.3
20260904233035 36 0 0.0 1.6 0.00 0.00 0.00 55 1013.2
20260904232517 35 0 0.0 3.2 0.00 0.00 0.00 56 1013.2
20260904232018 35 0 0.0 4.8 0.00 0.00 0.00 56 1013.2
20260904231537 35 0 1.6 4.8 0.00 0.00 0.00 57 1013.2
20260904231023 35 6 3.2 4.8 0.00 0.00 0.00 55 1013.3
20260904230520 35 35 3.2 6.4 0.00 0.00 0.00 55 1013.3
20260904230036 35 53 3.2 6.4 0.00 0.00 0.00 54 1013.4
20260904225519 36 47 3.2 4.8 0.00 0.00 0.00 51 1013.5
20260904225018 37 43 0.0 1.6 0.00 0.00 0.00 50 1013.5